Regional Weather Roundup
Issued by NWS

Home | Current Version | Previous Version | Text Only | Print | Product List | Glossary On
Versions: 1 2 3 4 5 6 7 8 9 10 11 12 13 14 15 16 17 18 19 20 21 22 23 24 25 26 27 28 29 30 31 32 33 34 35 36 37 38 39 40 41 42 43 44 45 46 47 48 49 50
000
ASUS43 KTOP 200208
RWRKS

WEATHER ROUNDUP FOR KANSAS
NATIONAL WEATHER SERVICE GOODLAND KS
800 PM CST FRI DEC 19 2014

NOTE:  "FAIR" INDICATES FEW OR NO CLOUDS BELOW 12,000 FEET WITH NO
SIGNIFICANT WEATHER AND/OR OBSTRUCTIONS TO VISIBILITY.

KSZ001>006-013>018-027>032-041>047-200300-
NORTHWEST KANSAS

CITY           SKY/WX    TMP DP  RH WIND       PRES   REMARKS
GOODLAND       CLEAR     30  23  75 SW8       30.06R
HAYS           CLEAR     36  27  69 SW9       30.08F
HILL CITY      CLEAR     36  26  67 SW6       30.06S
RUSSELL        CLEAR     34  33  96 S13       30.08S WCI  25
$$

KSZ061>065-074>080-084>089-200300-
SOUTHWEST KANSAS

CITY           SKY/WX    TMP DP  RH WIND       PRES   REMARKS
DODGE CITY     CLEAR     30  27  88 S7        30.11F
ELKHART          N/A    N/A N/A N/A MISG        N/A
GARDEN CITY    CLEAR     30  29  96 S9        30.10S
GREAT BEND     CLEAR     34  28  80 S8        30.12S
LIBERAL        CLEAR     32  27  80 S7        30.13S
PRATT          CLOUDY    37  34  87 SW8       30.15S
$$

KSZ066>073-081>083-090>101-200300-
SOUTHEAST KANSAS

CITY           SKY/WX    TMP DP  RH WIND       PRES   REMARKS
CHANUTE        FOG       35  35 100 NW5       30.21S VSB 3/4
COFFEYVILLE    CLOUDY    37  35  92 NW5       30.22R FOG
HUTCHINSON     CLOUDY    37  33  85 S6        30.15F
MEDICINE LODGE   N/A     37  35  92 S6        30.16S
NEWTON         CLOUDY    34  28  80 S7        30.18S
PARSONS        CLOUDY    37  36  96 NW3       30.22R FOG
WICHITA INTL   CLOUDY    37  33  85 S7        30.17F
WICHITA JABRA  CLOUDY    35  32  88 S5        30.17F
WICHITA MCCONL CLOUDY    36  33  89 SE6       30.18F
WINFIELD       CLOUDY    38  34  85 CALM      30.21S
$$

KSZ007>012-019>026-033>040-048>060-102>105-200300-
NORTHEAST KANSAS

CITY           SKY/WX    TMP DP  RH WIND       PRES   REMARKS
CONCORDIA      CLOUDY    33  33 100 S10       30.11F FOG     WCI  25
EMPORIA        CLOUDY    32  29  88 SW3       30.19F
LAWRENCE       CLOUDY    33  30  88 SW3       30.22S
MANHATTAN      CLOUDY    34  31  88 SE3       30.18S
MARYSVILLE     CLOUDY    32  32 100 S6        30.14F
OLATHE IND     CLOUDY    32  32 100 SW3       30.21S FOG
OLATHE EXE     CLOUDY    33  33 100 CALM      30.20R FOG
SALINA         PTCLDY    33  30  88 S8        30.14F
TOPEKA BILLARD CLOUDY    34  28  79 SW5       30.22R
TOPEKA FORBES  CLOUDY    33  28  81 SW3       30.20S
$$


USA.gov is the U.S. government's official web portal to all federal, state and local government web resources and services.